Regional Weather Roundup
Issued by NWS Albany, NY

Home | Current Version | Previous Version | Graphics & Text | Print | Product List | Glossary Off
Versions: 1 2 3 4 5 6 7 8 9 10 11 12 13 14 15 16 17 18 19 20 21 22 23 24 25 26 27 28 29 30 31 32 33 34 35 36 37 38 39 40 41 42 43 44 45 46 47 48 49 50

000
ASUS41 KALY 130510
RWRALY

NEW YORK STATE HOURLY WEATHER ROUNDUP
NATIONAL WEATHER SERVICE ALBANY NY
100 AM EDT SUN JUL 13 2014

NOTE: "FAIR" INDICATES FEW OR NO CLOUDS BELOW 12,000 FEET WITH NO
SIGNIFICANT WEATHER AND/OR NO OBSTRUCTIONS TO VISIBILITY.

NYZ032-033-038>043-046>054-057>066-NYZ062>081-130600-
EAST


CITY           SKY/WX    TMP DP  RH WIND       PRES   REMARKS
ALBANY         MOCLDY    73  59  61 S13       30.06F
GLENS FALLS    CLOUDY    70  66  87 S9        30.05S
POUGHKEEPSIE   MOCLDY    73  61  65 SE6       30.09F
MONTGOMERY     MOCLDY    67  62  84 CALM      30.10F
WHITE PLAINS   PTCLDY    69  65  86 S6        30.13F
NEW YORK CITY  MOCLDY    73  64  73 S9        30.12F
CENTRAL PARK   PTCLDY    74  58  57 VRB3      30.15F
$$

NYZ005>009-017-018-044>046-055-056-130600-
CENTRAL


CITY           SKY/WX    TMP DP  RH WIND       PRES   REMARKS
FULTON         MOCLDY    67  58  72 CALM      30.01F
SYRACUSE       CLOUDY    70  62  76 SE3       30.01F
ROME           PTCLDY    68  66  93 CALM      30.04F
ELMIRA         CLOUDY    65  62  90 CALM      30.05S
BINGHAMTON     CLOUDY    71  64  78 S10       30.09F
$$

NYZ026>034-041>043-130600-
NORTH


CITY           SKY/WX    TMP DP  RH WIND       PRES   REMARKS
WATERTOWN      MOCLDY    68  56  65 S5        29.98F
FORT DRUM      NOT AVBL
MASSENA        MOCLDY    60  59  96 CALM      29.99F
SARANAC LAKE   CLOUDY    60  59  96 CALM      30.06F FOG
PLATTSBURGH    CLOUDY    67  64  90 CALM      30.00F
$$

NYZ001>004-010>016-019>021-130600-
WEST


CITY           SKY/WX    TMP DP  RH WIND       PRES   REMARKS
NIAGARA FALLS  MOCLDY    73  61  65 S8        29.95F
BUFFALO        CLOUDY    73  60  63 S8        29.97F
DUNKIRK        MOCLDY    76  60  57 S15G25    29.97F
JAMESTOWN      MOCLDY    70  61  73 S8        30.05F
WELLSVILLE     CLOUDY    71  55  56 S6        30.10F
ROCHESTER      CLOUDY    71  62  73 S6        29.99F
PENN YAN       CLOUDY    67  63  87 SW5       30.04F
$$

             KEY
       WCI = WIND CHILL INDEX
       VSB = VISIBILITY
       HX  = HEAT INDEX
$$



USA.gov is the U.S. government's official web portal to all federal, state and local government web resources and services.